• Join FlightAware (Why Join?)
  • Login
  • US Flag 
04:01PM EDT


 

Airport Tracker/Info


-or-


 

Live Flight TrackerFlight Track Log ✈ N439AA ✈ 23-Apr-2012 ✈ KDFW - KMSY

Flight Track Log - Related Links

Times and Time Zones

All times are in EDT time to prevent confusion due to time zone crossing. See the N439AA flight status page for this flight to view local times or setup timezone preferences in your user account.

Time Position Orientation Groundspeed Altitude Reporting Facility
EDT Latitude Longitude Course Direction KTS MPH feet Rate Location/Type
09:24AM 32.8655 -97.0317 North  Level FlightAware Approximate
09:25AM 32.9214 -97.0294 12° North 162 186 1,900  Level FAA TRACON SMA TRACON (SMA)
09:25AM 32.9586 -97.0203 18° North 205 236 3,200 2,580 Climbing FAA TRACON SMA TRACON (SMA)
09:26AM 33.0008 -97.0039 57° Northeast 232 267 5,400 3,120 Climbing FAA TRACON SMA TRACON (SMA)
09:27AM 33.0253 -96.9589 100° East 269 310 7,500 2,640 Climbing FAA TRACON SMA TRACON (SMA)
09:27AM 33.0169 -96.9006 118° Southeast 296 341 9,000 1,860 Climbing FAA TRACON SMA TRACON (SMA)
09:28AM 32.9869 -96.8322 118° Southeast 343 395 10,000 960 Climbing FAA TRACON SMA TRACON (SMA)
09:29AM 32.9522 -96.7553 117° Southeast 386 444 10,300 1,440 Climbing FAA TRACON SMA TRACON (SMA)
09:29AM 32.9217 -96.6853 118° Southeast 388 447 11,900 2,640 Climbing FAA TRACON SMA TRACON (SMA)
09:30AM 32.8861 -96.6047 118° Southeast 397 457 13,800 2,640 Climbing FAA TRACON SMA TRACON (SMA)
09:31AM 32.8539 -96.5317 117° Southeast 407 468 15,400 2,400 Climbing FAA TRACON SMA TRACON (SMA)
09:31AM 32.8172 -96.4472 118° Southeast 416 479 17,100 2,220 Climbing FAA TRACON SMA TRACON (SMA)
09:32AM 32.7786 -96.3606 107° East 428 493 18,400 1,920 Climbing FAA TRACON SMA TRACON (SMA)
09:33AM 32.7569 -96.2778 100° East 431 496 19,700 2,100 Climbing FAA TRACON SMA TRACON (SMA)
09:33AM 32.7431 -96.1806 100° East 432 497 21,200 2,160 Climbing FAA TRACON SMA TRACON (SMA)
09:34AM 32.7278 -96.0819 99° East 439 505 22,600 1,800 Climbing FAA TRACON SMA TRACON (SMA)
09:35AM 32.7156 -95.9928 100° East 446 513 23,600 1,560 Climbing FAA TRACON SMA TRACON (SMA)
09:35AM 32.7003 -95.8906 105° East 457 526 24,700 1,500 Climbing FAA TRACON SMA TRACON (SMA)
09:36AM 32.6789 -95.7942 97° East 459 528 25,800 1,440 Climbing Fort Worth Center
09:37AM 32.6622 -95.6417 85° East 464 534 27,300 1,800 Climbing Fort Worth Center
09:38AM 32.6725 -95.4908 85° East 457 526 29,400 1,680 Climbing Fort Worth Center
09:39AM 32.6828 -95.3425 86° East 458 527 30,700 1,500 Climbing Fort Worth Center
09:40AM 32.6925 -95.1819 97° East 458 527 32,500 1,140 Climbing Fort Worth Center
09:41AM 32.6772 -95.0342 121° Southeast 442 509 33,000 240 Climbing Fort Worth Center
09:42AM 32.6058 -94.8956 123° Southeast 445 512 33,000  Level Fort Worth Center
09:43AM 32.5428 -94.7814 124° Southeast 452 520 33,000  Level Fort Worth Center
09:44AM 32.4625 -94.6386 124° Southeast 469 540 33,000  Level Fort Worth Center
09:45AM 32.3867 -94.5081 124° Southeast 485 558 33,000  Level Fort Worth Center
09:46AM 32.3125 -94.3778 125° Southeast 485 558 33,000  Level Fort Worth Center
09:47AM 32.2361 -94.2475 123° Southeast 479 551 33,000  Level Fort Worth Center
09:48AM 32.1706 -94.1272 124° Southeast 485 558 33,000  Level Fort Worth Center
09:49AM 32.0939 -93.9950 125° Southeast 485 558 33,000  Level Fort Worth Center
09:51AM 31.9533 -93.7594 124° Southeast 484 557 33,000  Level Houston Center
09:52AM 31.8781 -93.6283 124° Southeast 484 557 33,000  Level Houston Center
09:53AM 31.8028 -93.4972 124° Southeast 484 557 33,000  Level Houston Center
09:54AM 31.7272 -93.3667 124° Southeast 489 563 33,000  Level Houston Center
09:55AM 31.6436 -93.2239 124° Southeast 489 563 33,000  Level Houston Center
09:56AM 31.5658 -93.0911 125° Southeast 494 568 33,000  Level Houston Center
09:57AM 31.4878 -92.9608 125° Southeast 494 568 33,000  Level Houston Center
09:58AM 31.4117 -92.8333 124° Southeast 494 568 33,000  Level Houston Center
09:59AM 31.3336 -92.6964 125° Southeast 499 574 33,000  Level Houston Center
10:00AM 31.2553 -92.5669 124° Southeast 499 574 33,000  Level Houston Center
10:01AM 31.1789 -92.4350 125° Southeast 494 568 33,000  Level Houston Center
10:02AM 31.1003 -92.3061 125° Southeast 495 570 33,000 -120 Level Houston Center
10:03AM 31.0217 -92.1772 125° Southeast 495 570 32,800 -720 Descending Houston Center
10:04AM 30.9406 -92.0436 126° Southeast 500 575 31,600 -1,200 Descending Houston Center
10:05AM 30.8617 -91.9150 124° Southeast 495 570 30,400 -1,800 Descending Houston Center
10:06AM 30.7825 -91.7794 126° Southeast 501 577 28,100 -2,400 Descending Houston Center
10:07AM 30.7011 -91.6489 125° Southeast 501 577 25,700 -2,520 Descending Houston Center
10:08AM 30.6217 -91.5186 126° Southeast 501 577 23,100 -2,520 Descending Houston Center
10:09AM 30.5422 -91.3933 127° Southeast 496 571 20,700 -2,460 Descending Houston Center
10:10AM 30.4669 -91.2756 141° Southeast 486 559 18,200 -2,400 Descending Houston Center
10:11AM 30.3683 -91.1844 141° Southeast 469 540 15,900 -2,280 Descending Houston Center
10:12AM 30.2742 -91.0958 143° Southeast 447 514 13,700 -1,980 Descending Houston Center
10:13AM 30.1944 -91.0267 139° Southeast 417 480 12,200 -1,440 Descending Houston Center
10:14AM 30.1169 -90.9478 103° East 380 437 11,000 -840 Descending Houston Center
10:15AM 30.0953 -90.8378 115° Southeast 333 383 10,600 -960 Descending Houston Center
10:16AM 30.0572 -90.7419 115° Southeast 335 386 9,100 -1,500 Descending Houston Center
10:17AM 30.0189 -90.6464 114° Southeast 327 376 7,600 -1,440 Descending Houston Center
10:18AM 29.9847 -90.5581 120° Southeast 321 369 6,200 -1,380 Descending Houston Center
10:19AM 29.9425 -90.4722 132° Southeast 291 335 4,800 -1,380 Descending Houston Center
10:20AM 29.8939 -90.4103 115° Southeast 271 312 3,500 -1,200 Descending Houston Center
10:21AM 29.8661 -90.3411 115° Southeast 221 254 2,400 -1,140 Descending Houston Center